SCP
0 0 0 0 0 0 0 0 0 0 0 0 0 0 0 0 0 0 0 0 0 0 0 0 0 0 0 0 0 0 0 0 0 0 0 0 0 0 0 0 0 0 0 0 0
0 0 0 0 0 0 0 0 0 0 0 0 0 0 0 0 0 0 0 0 0 0 0 0 0 0 0 0 0 0 0 0 0 0 0 0 0 0 0 0 0 0 0 0 0
0 0 0 0 0 0 0 0 0 0 0 0 0 0 0 0 0 0 0 0 0 0 0 0 0 0 0 0 0 0 0 0 0 0 0 0 0 0 0 0 0 0 0 0 0
0 0 0 0 0 0 0 0 0 0 0 0 0 0 0 0 0 0 0 0 0 0 0 0 0 0 0 0 0 0 0 0 0 0 0 0 0 0 0 0 0 0 0 0 0
0 0 0 0 0 0 0 0 0 0 0 0 0 0 0 0 0 0 0 0 0 0 0 0 0 0 0 0 0 0 0 0 0 0 0 0 0 0 0 0 0 0 0 0 0
0 0 0 0 0 0 0 0 0 0 0 0 0 0 0 0 0 0 0 0 0 0 0 0 0 0 0 0 0 0 0 0 0 0 0 0 0 0 0 0 0 0 0 0 0
0 0 0 0 0 0 0 0 0 0 0 0 0 0 0 0 0 0 0 0 0 0 0 0 0 0 0 0 0 0 0 0 0 0 0 0 0 0 0 0 0 0 0 0 0
0 0 0 0 0 0 0 -0 0 0 0 0 0 0 0 0 0 0 0 0 0 0 0 0 0 0 0 0 0 0 0 0 0 0 0 0 0 0 0 0 0 0 0 0 0
0 0 0 0 0 0 0 -0 -0 0 0 0 0 0 0 0 0 0 0 0 0 0 0 0 0 0 0 0 0 0 0 0 0 0 0 0 0 0 0 0 0 0 0 0 0
0 0 0 0 0 0 0 -0 -0 0 0 0 0 0 0 0 0 0 0 0 0 0 0 0 0 0 0 0 0 0 0 0 0 0 0 0 0 0 0 0 0 0 0 0 0
0 0 0 0 0 0 0 0 0 0 0 0 0 0 0 0 0 0 0 0 0 0 0 0 0 0 0 0 0 0 0 0 0 0 0 0 0 0 0 0 0 0 0 0 0
0 0 0 0 0 0 0 0 0 0 0 0 0 0 0 0 0 0 0 0 0 0 0 0 0 0 0 0 0 0 0 0 0 0 0 0 0 0 0 0 0 0 0 0 0
0 0 0 0 0 0 0 0 0 0 0 0 0 0 0 0 0 0 0 0 0 0 0 0 0 0 0 0 0 0 0 0 0 0 0 0 0 0 0 0 0 0 0 0 0
0 0 0 0 0 0 0 0 0 0 0 0 0 0 0 0 0 0 0 0 0 0 0 0 0 0 0 0 0 0 0 0 0 0 0 0 0 0 0 0 0 0 0 0 0
0 0 0 0 0 0 0 0 0 0 0 0 0 -0 0 0 0 0 0 0 0 0 0 0 0 0 0 0 0 0 0 0 0 0 0 0 0 0 0 0 0 0 0 0 0
0 0 0 0 0 0 0 0 0 0 0 0 0 0 0 0 0 0 0 0 0 0 0 0 0 0 0 0 0 0 0 0 0 0 0 0 0 0 0 0 0 0 0 0 0
0 0 0 0 0 0 0 0 0 0 0 0 0 0 0 0 0 0 0 0 0 0 0 0 0 0 0 0 0 0 0 0 0 0 0 0 0 0 0 0 0 0 0 0 0
0 0 0 0 0 0 0 0 0 0 0 0 0 0 0 0 -0 0 0 0 0 0 0 0 0 0 0 0 0 0 0 0 0 0 0 -0 0 0 0 0 0 0 0 0 0
0 0 0 0 0 0 0 0 0 0 0 0 0 0 0 0 0 0 0 0 0 0 0 0 0 0 0 0 0 0 0 0 0 0 0 0 0 0 0 0 0 0 0 0 0
0 0 0 -0 0 0 0 0 0 0 0 0 0 0 0 0 0 0 0 0 0 0 0 0 0 0 0 0 0 0 0 0 0 0 0 0 0 0 0 0 0 0 0 0 0
0 0 0 -0 0 0 0 0 0 0 0 0 0 0 0 0 0 0 0 0 0 0 0 0 0 0 0 0 0 0 0 0 0 0 0 0 0 0 -0 0 0 0 0 0 0
0 0 0 0 0 0 0 0 0 0 -0 0 0 0 0 -0 -0 0 -0 0 0 0 0 0 0 0 0 0 0 0 0 0 0 0 0 0 0 0 0 0 0 0 0 0 0
0 0 0 0 0 0 0 0 0 0 -0 0 0 0 -0 -0 -0 0 -0 0 0 0 0 0 0 0 0 0 0 0 0 0 0 0 0 0 0 0 0 0 0 0 0 0 0
0 0 0 0 0 0 0 0 -0 0 -0 0 0 0 -0 0 0 -0 -0 0 0 0 0 0 0 0 0 0 0 0 0 0 0 0 0 0 0 0 0 0 0 0 0 0 0
0 0 0 0 0 0 0 0 0 0 -0 0 0 0 -0 -0 0 -0 0 -0 0 0 0 0 0 0 0 0 0 0 0 0 0 0 0 0 0 0 0 0 0 0 0 0 0
0 0 0 0 0 0 0 0 0 0 -0 -0 0 0 0 0 0 0 -0 -0 0 0 0 0 0 0 0 0 0 0 0 0 0 0 0 0 0 0 0 0 0 0 0 0 0
0 0 0 0 0 0 0 0 0 0 -0 -0 0 0 0 0 0 0 0 -0 -0 0 0 0 0 0 0 0 0 0 0 0 0 0 0 0 0 0 0 0 0 0 0 0 0
Wind_Speed_500mb
22 22 19 16 16 19 21 21 22 23 23 24 23 24 27 30 29 24 31 25 20 21 15 20 17 14 11 7 7 8 7 6 8 10 5 15 8 7 17 24 11 7 15 34 50
17 18 16 15 15 17 19 20 21 22 22 23 23 21 22 25 27 27 25 33 33 18 14 16 14 13 11 9 8 6 6 15 9 5 9 14 12 21 12 16 11 14 28 48 47
21 16 16 16 16 18 21 20 19 22 22 21 21 19 15 15 19 6 14 28 42 24 16 11 10 10 15 13 12 10 9 10 8 11 7 15 13 8 27 6 9 23 54 51 44
21 22 18 17 15 16 20 24 25 23 24 21 20 15 12 6 9 6 9 14 31 34 28 7 6 6 10 11 15 8 14 9 5 10 9 14 18 15 24 8 17 39 53 46 38
20 21 21 18 17 17 20 23 25 26 25 23 19 15 8 8 17 7 7 6 12 31 40 19 3 8 10 10 14 8 8 17 7 8 18 29 20 19 23 24 38 43 47 46 39
23 24 23 20 18 18 20 23 26 27 25 22 17 15 9 9 11 17 12 5 6 15 23 41 7 14 7 7 12 17 13 11 12 22 24 20 12 8 14 22 39 43 43 41 37
26 25 24 22 17 18 18 22 24 27 26 20 16 17 20 30 9 11 20 14 6 8 25 32 39 9 9 4 8 7 11 6 8 7 12 34 12 9 14 25 37 38 33 34 32
27 26 25 21 17 16 17 20 22 24 24 20 15 16 15 11 16 19 15 12 13 9 14 33 44 20 15 6 7 6 8 10 2 2 5 11 6 4 24 30 34 34 32 30 29
27 26 23 20 16 15 17 20 21 24 20 18 12 11 16 14 12 8 17 11 3 13 15 21 34 25 17 4 3 7 11 9 6 10 3 6 7 2 25 32 34 32 32 30 28
24 25 21 17 14 14 17 20 21 22 17 14 7 10 8 13 23 10 9 15 6 9 14 18 16 9 4 12 10 15 11 5 10 4 13 11 10 10 17 31 33 27 27 28 23
23 23 19 14 12 11 14 16 10 6 11 7 6 11 18 23 15 4 3 8 8 7 10 13 9 27 42 42 41 9 8 11 6 8 10 7 15 11 21 25 27 25 25 23 20
20 20 16 11 9 7 9 8 6 8 14 7 11 24 26 21 12 10 4 6 8 10 6 7 20 9 15 13 25 34 19 7 6 14 10 7 14 6 7 10 21 27 23 20 22
19 19 15 11 7 4 5 6 5 10 5 10 11 9 7 7 7 6 5 6 7 11 9 7 5 17 10 13 22 26 24 14 11 13 12 11 7 7 1 10 16 22 22 22 22
22 18 15 11 5 4 5 4 6 9 9 11 9 7 9 8 8 11 8 8 5 15 8 9 6 8 18 14 16 19 3 24 29 14 6 7 11 12 13 10 13 23 28 25 25
23 19 15 12 1 3 4 4 5 5 8 11 9 11 17 4 17 2 6 9 6 7 8 10 8 12 14 13 14 7 20 21 20 18 10 9 8 3 25 17 19 29 28 30 31
21 17 14 7 1 2 5 4 2 12 8 9 10 12 11 2 5 12 5 8 2 6 0 9 4 7 16 13 17 10 11 20 18 12 8 17 17 8 15 21 19 25 38 41 40
20 16 11 6 2 3 3 4 10 9 9 12 8 10 11 8 8 1 6 5 7 9 8 6 7 7 7 10 10 11 18 4 7 8 5 14 18 13 12 12 38 50 61 56 52
19 13 9 5 5 4 3 9 10 6 10 9 7 14 6 7 6 7 6 6 8 5 6 9 8 15 9 13 11 28 21 10 13 10 11 10 9 7 4 6 40 60 65 63 59
15 10 8 7 6 2 5 8 13 12 4 11 10 6 7 4 4 3 11 13 13 17 10 10 8 2 4 7 7 14 18 11 11 4 6 7 2 5 2 8 35 52 65 68 66
10 8 8 7 3 3 7 3 4 8 8 3 5 2 5 7 6 6 11 8 10 19 11 10 1 3 5 3 2 11 16 4 2 10 7 5 7 10 6 16 21 36 55 67 68
10 3 5 6 3 3 6 10 6 9 9 5 3 6 8 5 6 8 9 4 10 8 28 5 5 5 6 10 12 8 11 4 8 2 7 5 8 6 17 29 40 56 65 70 74
4 3 5 9 2 4 4 6 2 5 4 6 6 8 4 6 9 9 8 6 7 3 14 10 4 6 6 10 5 5 11 10 8 6 2 1 8 3 9 25 31 40 46 57 73
3 2 4 5 3 3 5 1 5 5 7 4 5 4 2 6 8 10 8 14 10 7 6 15 8 6 4 2 5 8 7 10 10 4 8 7 8 6 9 27 40 45 48 60 66
3 4 2 2 4 11 7 2 6 6 7 5 4 6 4 6 8 10 7 4 13 9 5 5 4 6 9 4 4 10 9 9 10 6 9 9 4 5 10 15 35 48 64 71 72
4 4 3 3 4 7 4 6 1 3 6 5 3 3 7 6 6 7 9 11 8 14 7 3 5 3 2 3 4 4 26 19 25 8 13 8 11 9 21 24 44 53 60 68 74
6 8 6 4 5 7 2 5 8 6 4 7 5 3 4 4 1 7 11 10 9 14 6 3 1 1 2 7 5 5 8 24 17 15 9 9 12 1 11 38 45 62 74 78 80
11 9 4 3 6 6 6 8 8 6 8 7 5 2 4 6 10 13 12 17 10 6 6 4 5 2 4 2 3 6 15 18 9 8 16 13 13 12 9 27 54 65 72 71 78
Wind_Direction_500mb
339 344 339 335 331 326 328 328 325 319 312 303 298 287 283 279 269 256 244 240 238 246 256 223 229 238 246 233 219 160 83 184 211 174 172 163 132 132 119 127 107 103 143 149 152
320 335 336 329 326 324 324 329 323 319 314 304 302 303 291 289 283 263 250 240 230 249 256 236 204 215 206 199 196 137 141 207 195 207 175 162 139 136 134 121 83 94 134 150 156
289 299 322 321 321 324 325 326 328 319 311 305 299 306 302 304 297 223 233 237 231 230 256 240 217 192 198 187 189 176 191 193 186 223 162 134 104 92 127 87 160 154 145 154 158
279 286 297 308 310 317 321 324 327 328 316 308 299 299 301 285 217 160 182 192 225 222 229 239 224 208 175 181 186 167 223 182 208 174 139 119 113 67 59 24 130 146 147 156 160
273 286 292 293 299 308 312 316 319 327 324 312 306 305 306 245 250 223 201 189 184 214 217 211 262 239 181 204 163 190 211 190 197 125 112 127 87 110 62 108 138 146 152 155 166
272 276 283 292 291 298 304 309 316 321 326 320 313 313 283 247 247 242 240 216 184 167 220 205 221 298 288 222 181 212 182 164 152 136 132 105 99 83 64 122 134 148 149 158 163
266 268 277 285 287 293 299 301 309 318 322 322 313 308 275 254 281 251 238 241 201 134 191 218 212 301 261 245 306 197 142 143 72 150 131 109 51 56 115 139 128 141 141 150 156
261 258 265 275 278 285 290 293 303 312 318 321 307 298 270 296 280 251 238 246 243 183 148 211 197 244 270 11 358 195 120 158 32 144 134 185 185 86 120 142 117 125 137 147 151
251 249 254 265 271 277 284 290 298 306 309 319 305 295 285 319 327 290 246 237 265 217 170 143 191 203 267 196 325 293 180 159 159 14 162 48 151 176 151 151 129 130 132 133 144
241 237 241 254 261 276 288 297 300 301 301 305 282 302 328 334 338 312 265 228 211 178 170 169 171 142 109 178 216 195 160 136 148 14 47 75 106 106 152 160 141 137 135 136 141
230 226 227 238 256 279 301 318 328 320 322 262 263 277 293 318 319 323 315 224 206 171 169 193 178 200 196 201 222 272 152 123 49 32 76 76 120 141 146 146 142 148 144 140 141
210 211 214 220 245 273 303 337 357 323 316 305 300 276 289 305 302 322 274 204 188 200 171 161 217 144 114 132 198 263 209 127 108 39 81 133 103 125 141 140 165 155 153 149 144
189 191 197 202 214 259 303 322 328 337 304 317 330 325 333 314 273 317 240 217 197 205 222 156 197 156 138 159 181 217 217 165 142 100 72 147 89 183 91 148 159 161 160 158 147
169 177 187 181 196 224 292 317 333 353 63 311 342 1 344 311 283 301 276 267 258 194 183 224 254 152 181 195 188 201 248 168 139 121 160 351 212 210 178 182 188 173 169 162 153
162 173 178 167 177 180 270 274 337 19 27 299 321 339 331 298 311 6 311 235 259 198 171 239 177 164 180 215 167 211 156 210 158 144 139 198 292 157 154 203 203 198 177 163 162
160 165 172 174 184 254 263 240 38 44 264 337 324 350 352 241 282 306 357 207 298 276 283 206 297 197 192 184 204 151 121 183 190 176 219 175 181 214 200 197 190 179 186 174 169
156 162 173 199 222 240 202 251 39 117 319 315 334 347 330 282 320 43 292 186 185 194 202 160 264 278 177 140 160 237 154 187 210 196 189 159 181 247 179 202 190 179 181 180 175
154 169 196 210 144 160 227 51 80 227 238 251 287 294 281 318 243 276 277 237 236 137 170 179 208 177 218 204 164 211 173 160 190 183 206 162 223 241 291 351 180 176 177 177 176
166 185 187 154 135 213 260 59 198 200 268 314 334 300 313 309 252 280 232 210 215 166 200 184 248 297 175 223 151 174 230 147 109 28 100 189 296 273 355 115 145 155 165 177 180
169 186 176 172 179 233 77 228 182 221 313 336 303 226 283 283 327 236 216 220 204 182 179 201 304 301 209 105 6 193 159 127 37 150 172 218 269 232 216 174 162 164 169 177 181
168 227 216 206 230 225 132 213 233 256 257 251 256 279 254 294 263 272 262 295 222 200 185 115 180 293 144 207 185 146 175 130 113 102 154 154 246 196 205 185 181 181 180 176 180
217 33 234 210 325 45 137 142 298 270 271 274 260 270 296 305 277 273 305 345 253 269 150 155 205 204 220 303 280 287 166 155 174 206 2 74 264 149 244 180 179 176 170 174 181
210 221 246 208 137 319 294 183 248 227 233 222 289 217 245 275 285 263 305 356 58 25 144 147 206 133 337 352 335 217 214 133 101 83 183 183 242 358 170 150 167 156 164 177 181
141 21 233 126 122 125 169 266 299 227 263 263 277 348 318 277 238 296 313 34 30 38 116 98 211 182 210 199 120 170 158 158 123 156 160 219 252 212 170 161 161 167 178 184 185
147 213 178 269 322 96 137 143 6 306 245 248 247 176 270 287 297 336 340 342 39 22 41 44 176 228 218 177 319 168 173 160 185 157 189 205 206 214 191 185 175 171 174 179 185
151 173 148 119 137 100 266 232 185 285 204 273 223 254 348 226 284 302 351 22 34 326 15 25 335 18 294 350 69 24 194 193 176 175 173 213 246 77 163 169 174 177 181 185 190
192 199 173 184 131 103 228 193 205 166 226 246 245 268 283 245 252 277 268 272 263 320 316 345 134 185 252 3 13 315 218 202 186 182 152 180 208 157 170 183 185 187 187 186 194
Wind_Speed_850mb
22 22 19 16 16 19 21 21 22 23 23 24 23 24 27 30 29 24 31 25 20 21 15 20 17 14 11 7 7 8 7 6 8 10 5 15 8 7 17 24 11 7 15 34 50
17 18 16 15 15 17 19 20 21 22 22 23 23 21 22 25 27 27 25 33 33 18 14 16 14 13 11 9 8 6 6 15 9 5 9 14 12 21 12 16 11 14 28 48 47
21 16 16 16 16 18 21 20 19 22 22 21 21 19 15 15 19 6 14 28 42 24 16 11 10 10 15 13 12 10 9 10 8 11 7 15 13 8 27 6 9 23 54 51 44
21 22 18 17 15 16 20 24 25 23 24 21 20 15 12 6 9 6 9 14 31 34 28 7 6 6 10 11 15 8 14 9 5 10 9 14 18 15 24 8 17 39 53 46 38
20 21 21 18 17 17 20 23 25 26 25 23 19 15 8 8 17 7 7 6 12 31 40 19 3 8 10 10 14 8 8 17 7 8 18 29 20 19 23 24 38 43 47 46 39
23 24 23 20 18 18 20 23 26 27 25 22 17 15 9 9 11 17 12 5 6 15 23 41 7 14 7 7 12 17 13 11 12 22 24 20 12 8 14 22 39 43 43 41 37
26 25 24 22 17 18 18 22 24 27 26 20 16 17 20 30 9 11 20 14 6 8 25 32 39 9 9 4 8 7 11 6 8 7 12 34 12 9 14 25 37 38 33 34 32
27 26 25 21 17 16 17 20 22 24 24 20 15 16 15 11 16 19 15 12 13 9 14 33 44 20 15 6 7 6 8 10 2 2 5 11 6 4 24 30 34 34 32 30 29
27 26 23 20 16 15 17 20 21 24 20 18 12 11 16 14 12 8 17 11 3 13 15 21 34 25 17 4 3 7 11 9 6 10 3 6 7 2 25 32 34 32 32 30 28
24 25 21 17 14 14 17 20 21 22 17 14 7 10 8 13 23 10 9 15 6 9 14 18 16 9 4 12 10 15 11 5 10 4 13 11 10 10 17 31 33 27 27 28 23
23 23 19 14 12 11 14 16 10 6 11 7 6 11 18 23 15 4 3 8 8 7 10 13 9 27 42 42 41 9 8 11 6 8 10 7 15 11 21 25 27 25 25 23 20
20 20 16 11 9 7 9 8 6 8 14 7 11 24 26 21 12 10 4 6 8 10 6 7 20 9 15 13 25 34 19 7 6 14 10 7 14 6 7 10 21 27 23 20 22
19 19 15 11 7 4 5 6 5 10 5 10 11 9 7 7 7 6 5 6 7 11 9 7 5 17 10 13 22 26 24 14 11 13 12 11 7 7 1 10 16 22 22 22 22
22 18 15 11 5 4 5 4 6 9 9 11 9 7 9 8 8 11 8 8 5 15 8 9 6 8 18 14 16 19 3 24 29 14 6 7 11 12 13 10 13 23 28 25 25
23 19 15 12 1 3 4 4 5 5 8 11 9 11 17 4 17 2 6 9 6 7 8 10 8 12 14 13 14 7 20 21 20 18 10 9 8 3 25 17 19 29 28 30 31
21 17 14 7 1 2 5 4 2 12 8 9 10 12 11 2 5 12 5 8 2 6 0 9 4 7 16 13 17 10 11 20 18 12 8 17 17 8 15 21 19 25 38 41 40
20 16 11 6 2 3 3 4 10 9 9 12 8 10 11 8 8 1 6 5 7 9 8 6 7 7 7 10 10 11 18 4 7 8 5 14 18 13 12 12 38 50 61 56 52
19 13 9 5 5 4 3 9 10 6 10 9 7 14 6 7 6 7 6 6 8 5 6 9 8 15 9 13 11 28 21 10 13 10 11 10 9 7 4 6 40 60 65 63 59
15 10 8 7 6 2 5 8 13 12 4 11 10 6 7 4 4 3 11 13 13 17 10 10 8 2 4 7 7 14 18 11 11 4 6 7 2 5 2 8 35 52 65 68 66
10 8 8 7 3 3 7 3 4 8 8 3 5 2 5 7 6 6 11 8 10 19 11 10 1 3 5 3 2 11 16 4 2 10 7 5 7 10 6 16 21 36 55 67 68
10 3 5 6 3 3 6 10 6 9 9 5 3 6 8 5 6 8 9 4 10 8 28 5 5 5 6 10 12 8 11 4 8 2 7 5 8 6 17 29 40 56 65 70 74
4 3 5 9 2 4 4 6 2 5 4 6 6 8 4 6 9 9 8 6 7 3 14 10 4 6 6 10 5 5 11 10 8 6 2 1 8 3 9 25 31 40 46 57 73
3 2 4 5 3 3 5 1 5 5 7 4 5 4 2 6 8 10 8 14 10 7 6 15 8 6 4 2 5 8 7 10 10 4 8 7 8 6 9 27 40 45 48 60 66
3 4 2 2 4 11 7 2 6 6 7 5 4 6 4 6 8 10 7 4 13 9 5 5 4 6 9 4 4 10 9 9 10 6 9 9 4 5 10 15 35 48 64 71 72
4 4 3 3 4 7 4 6 1 3 6 5 3 3 7 6 6 7 9 11 8 14 7 3 5 3 2 3 4 4 26 19 25 8 13 8 11 9 21 24 44 53 60 68 74
6 8 6 4 5 7 2 5 8 6 4 7 5 3 4 4 1 7 11 10 9 14 6 3 1 1 2 7 5 5 8 24 17 15 9 9 12 1 11 38 45 62 74 78 80
11 9 4 3 6 6 6 8 8 6 8 7 5 2 4 6 10 13 12 17 10 6 6 4 5 2 4 2 3 6 15 18 9 8 16 13 13 12 9 27 54 65 72 71 78
Wind_Direction_850mb
339 344 339 335 331 326 328 328 325 319 312 303 298 287 283 279 269 256 244 240 238 246 256 223 229 238 246 233 219 160 83 184 211 174 172 163 132 132 119 127 107 103 143 149 152
320 335 336 329 326 324 324 329 323 319 314 304 302 303 291 289 283 263 250 240 230 249 256 236 204 215 206 199 196 137 141 207 195 207 175 162 139 136 134 121 83 94 134 150 156
289 299 322 321 321 324 325 326 328 319 311 305 299 306 302 304 297 223 233 237 231 230 256 240 217 192 198 187 189 176 191 193 186 223 162 134 104 92 127 87 160 154 145 154 158
279 286 297 308 310 317 321 324 327 328 316 308 299 299 301 285 217 160 182 192 225 222 229 239 224 208 175 181 186 167 223 182 208 174 139 119 113 67 59 24 130 146 147 156 160
273 286 292 293 299 308 312 316 319 327 324 312 306 305 306 245 250 223 201 189 184 214 217 211 262 239 181 204 163 190 211 190 197 125 112 127 87 110 62 108 138 146 152 155 166
272 276 283 292 291 298 304 309 316 321 326 320 313 313 283 247 247 242 240 216 184 167 220 205 221 298 288 222 181 212 182 164 152 136 132 105 99 83 64 122 134 148 149 158 163
266 268 277 285 287 293 299 301 309 318 322 322 313 308 275 254 281 251 238 241 201 134 191 218 212 301 261 245 306 197 142 143 72 150 131 109 51 56 115 139 128 141 141 150 156
261 258 265 275 278 285 290 293 303 312 318 321 307 298 270 296 280 251 238 246 243 183 148 211 197 244 270 11 358 195 120 158 32 144 134 185 185 86 120 142 117 125 137 147 151
251 249 254 265 271 277 284 290 298 306 309 319 305 295 285 319 327 290 246 237 265 217 170 143 191 203 267 196 325 293 180 159 159 14 162 48 151 176 151 151 129 130 132 133 144
241 237 241 254 261 276 288 297 300 301 301 305 282 302 328 334 338 312 265 228 211 178 170 169 171 142 109 178 216 195 160 136 148 14 47 75 106 106 152 160 141 137 135 136 141
230 226 227 238 256 279 301 318 328 320 322 262 263 277 293 318 319 323 315 224 206 171 169 193 178 200 196 201 222 272 152 123 49 32 76 76 120 141 146 146 142 148 144 140 141
210 211 214 220 245 273 303 337 357 323 316 305 300 276 289 305 302 322 274 204 188 200 171 161 217 144 114 132 198 263 209 127 108 39 81 133 103 125 141 140 165 155 153 149 144
189 191 197 202 214 259 303 322 328 337 304 317 330 325 333 314 273 317 240 217 197 205 222 156 197 156 138 159 181 217 217 165 142 100 72 147 89 183 91 148 159 161 160 158 147
169 177 187 181 196 224 292 317 333 353 63 311 342 1 344 311 283 301 276 267 258 194 183 224 254 152 181 195 188 201 248 168 139 121 160 351 212 210 178 182 188 173 169 162 153
162 173 178 167 177 180 270 274 337 19 27 299 321 339 331 298 311 6 311 235 259 198 171 239 177 164 180 215 167 211 156 210 158 144 139 198 292 157 154 203 203 198 177 163 162
160 165 172 174 184 254 263 240 38 44 264 337 324 350 352 241 282 306 357 207 298 276 283 206 297 197 192 184 204 151 121 183 190 176 219 175 181 214 200 197 190 179 186 174 169
156 162 173 199 222 240 202 251 39 117 319 315 334 347 330 282 320 43 292 186 185 194 202 160 264 278 177 140 160 237 154 187 210 196 189 159 181 247 179 202 190 179 181 180 175
154 169 196 210 144 160 227 51 80 227 238 251 287 294 281 318 243 276 277 237 236 137 170 179 208 177 218 204 164 211 173 160 190 183 206 162 223 241 291 351 180 176 177 177 176
166 185 187 154 135 213 260 59 198 200 268 314 334 300 313 309 252 280 232 210 215 166 200 184 248 297 175 223 151 174 230 147 109 28 100 189 296 273 355 115 145 155 165 177 180
169 186 176 172 179 233 77 228 182 221 313 336 303 226 283 283 327 236 216 220 204 182 179 201 304 301 209 105 6 193 159 127 37 150 172 218 269 232 216 174 162 164 169 177 181
168 227 216 206 230 225 132 213 233 256 257 251 256 279 254 294 263 272 262 295 222 200 185 115 180 293 144 207 185 146 175 130 113 102 154 154 246 196 205 185 181 181 180 176 180
217 33 234 210 325 45 137 142 298 270 271 274 260 270 296 305 277 273 305 345 253 269 150 155 205 204 220 303 280 287 166 155 174 206 2 74 264 149 244 180 179 176 170 174 181
210 221 246 208 137 319 294 183 248 227 233 222 289 217 245 275 285 263 305 356 58 25 144 147 206 133 337 352 335 217 214 133 101 83 183 183 242 358 170 150 167 156 164 177 181
141 21 233 126 122 125 169 266 299 227 263 263 277 348 318 277 238 296 313 34 30 38 116 98 211 182 210 199 120 170 158 158 123 156 160 219 252 212 170 161 161 167 178 184 185
147 213 178 269 322 96 137 143 6 306 245 248 247 176 270 287 297 336 340 342 39 22 41 44 176 228 218 177 319 168 173 160 185 157 189 205 206 214 191 185 175 171 174 179 185
151 173 148 119 137 100 266 232 185 285 204 273 223 254 348 226 284 302 351 22 34 326 15 25 335 18 294 350 69 24 194 193 176 175 173 213 246 77 163 169 174 177 181 185 190
192 199 173 184 131 103 228 193 205 166 226 246 245 268 283 245 252 277 268 272 263 320 316 345 134 185 252 3 13 315 218 202 186 182 152 180 208 157 170 183 185 187 187 186 194